Time,TemperatureF,DewpointF,PressureIn,WindDirection,WindDirectionDegrees,WindSpeedMPH,WindSpeedGustMPH,Humidity,HourlyPrecipIn,Conditions,Clouds,dailyrainin,SolarRadiationWatts/m^2,SoftwareType,DateUTC
2013-03-11 02:00:00,32.0,31.0,-100.00,NE,45,7.0,-999.0,97,-99.99,,,-99.99,0.000000,,2013-03-11 06:00:00,
2013-03-11 02:42:00,32.0,31.0,-100.00,NE,45,7.0,-999.0,97,-99.99,,,-99.99,0.000000,,2013-03-11 06:42:00,
2013-03-11 02:53:00,32.0,31.0,-100.00,NE,45,7.0,-999.0,97,-99.99,,,-99.99,0.000000,,2013-03-11 06:53:00,
2013-03-11 03:00:00,32.0,32.0,-100.00,ENE,67,7.0,-999.0,97,-99.99,,,-99.99,0.000000,,2013-03-11 07:00:00,
2013-03-11 03:42:00,32.0,32.0,-100.00,ENE,67,7.0,-999.0,97,-99.99,,,-99.99,0.000000,,2013-03-11 07:42:00,
2013-03-11 03:52:00,32.0,32.0,-100.00,ENE,67,7.0,-999.0,97,-99.99,,,-99.99,0.000000,,2013-03-11 07:52:00,
2013-03-11 04:00:00,32.0,32.0,-100.00,NE,45,5.0,-999.0,97,-99.99,,,-99.99,0.000000,,2013-03-11 08:00:00,
2013-03-11 04:42:00,32.0,32.0,-100.00,NE,45,5.0,-999.0,97,-99.99,,,-99.99,0.000000,,2013-03-11 08:42:00,
2013-03-11 04:52:00,32.0,32.0,-100.00,NE,45,5.0,-999.0,97,-99.99,,,-99.99,0.000000,,2013-03-11 08:52:00,
2013-03-11 05:00:00,32.0,31.0,-100.00,NE,45,6.0,-999.0,97,-99.99,,,-99.99,0.000000,,2013-03-11 09:00:00,
2013-03-11 05:42:00,32.0,31.0,-100.00,NE,45,6.0,-999.0,97,-99.99,,,-99.99,0.000000,,2013-03-11 09:42:00,
2013-03-11 05:52:00,32.0,31.0,-100.00,NE,45,6.0,-999.0,97,-99.99,,,-99.99,0.000000,,2013-03-11 09:52:00,
2013-03-11 07:00:00,32.0,31.0,-100.00,ENE,67,6.0,-999.0,97,-99.99,,,-99.99,0.000000,,2013-03-11 11:00:00,
2013-03-11 07:33:00,32.0,31.0,-100.00,ENE,67,6.0,-999.0,97,-99.99,,,-99.99,0.000000,,2013-03-11 11:33:00,
2013-03-11 07:43:00,32.0,31.0,-100.00,ENE,67,6.0,-999.0,97,-99.99,,,-99.99,0.000000,,2013-03-11 11:43:00,
2013-03-11 07:53:00,32.0,31.0,-100.00,ENE,67,6.0,-999.0,97,-99.99,,,-99.99,0.000000,,2013-03-11 11:53:00,
2013-03-11 08:00:00,32.0,31.0,-100.00,ENE,67,6.0,-999.0,97,-99.99,,,-99.99,0.000000,,2013-03-11 12:00:00,
2013-03-11 08:43:00,32.0,31.0,-100.00,ENE,67,6.0,-999.0,97,-99.99,,,-99.99,0.000000,,2013-03-11 12:43:00,
2013-03-11 08:53:00,32.0,31.0,-100.00,ENE,67,6.0,-999.0,97,-99.99,,,-99.99,0.000000,,2013-03-11 12:53:00,
2013-03-11 10:00:00,32.0,31.0,-100.00,SSE,157,4.0,-999.0,97,-99.99,,,-99.99,18.559999,,2013-03-11 14:00:00,
2013-03-11 10:43:00,32.0,31.0,-100.00,SSE,157,4.0,-999.0,97,-99.99,,,-99.99,18.559999,,2013-03-11 14:43:00,
2013-03-11 10:53:00,32.0,31.0,-100.00,SSE,157,4.0,-999.0,97,-99.99,,,-99.99,18.559999,,2013-03-11 14:53:00,
2013-03-11 11:00:00,32.0,31.0,-100.00,SW,225,5.0,-999.0,97,-99.99,,,-99.99,44.080002,,2013-03-11 15:00:00,
2013-03-11 11:43:00,32.0,31.0,-100.00,SW,225,5.0,-999.0,97,-99.99,,,-99.99,44.080002,,2013-03-11 15:43:00,
2013-03-11 11:53:00,32.0,31.0,-100.00,SW,225,5.0,-999.0,97,-99.99,,,-99.99,44.080002,,2013-03-11 15:53:00,
2013-03-11 16:00:00,35.0,31.0,-100.00,SW,225,7.0,-999.0,84,0.14,,,-99.99,264.480011,,2013-03-11 20:00:00,
2013-03-11 16:44:00,35.0,31.0,-100.00,SW,225,7.0,-999.0,84,0.14,,,-99.99,264.480011,,2013-03-11 20:44:00,
2013-03-11 16:53:00,35.0,31.0,-100.00,SW,225,7.0,-999.0,84,0.14,,,-99.99,264.480011,,2013-03-11 20:53:00,
2013-03-11 17:00:00,34.0,29.0,-100.00,South,180,6.0,-999.0,84,0.03,,,-99.99,139.199997,,2013-03-11 21:00:00,
2013-03-11 17:44:00,34.0,29.0,-100.00,South,180,6.0,-999.0,84,0.03,,,-99.99,139.199997,,2013-03-11 21:44:00,
2013-03-11 17:53:00,34.0,29.0,-100.00,South,180,6.0,-999.0,84,0.03,,,-99.99,139.199997,,2013-03-11 21:53:00,
2013-03-11 19:00:00,32.0,27.0,-100.00,West,270,10.0,-999.0,82,-99.99,,,-99.99,83.519997,,2013-03-11 23:00:00,
2013-03-11 19:43:00,32.0,27.0,-100.00,West,270,10.0,-999.0,82,-99.99,,,-99.99,83.519997,,2013-03-11 23:43:00,
2013-03-11 19:53:00,32.0,27.0,-100.00,West,270,10.0,-999.0,82,-99.99,,,-99.99,83.519997,,2013-03-11 23:53:00,
2013-03-11 20:00:00,30.0,26.0,-100.00,WSW,247,9.0,-999.0,82,-99.99,,,-99.99,16.240000,,2013-03-12 00:00:00,
2013-03-11 20:43:00,30.0,26.0,-100.00,WSW,247,9.0,-999.0,82,-99.99,,,-99.99,16.240000,,2013-03-12 00:43:00,
2013-03-11 20:53:00,30.0,26.0,-100.00,WSW,247,9.0,-999.0,82,-99.99,,,-99.99,16.240000,,2013-03-12 00:53:00,
2013-03-11 21:00:00,29.0,25.0,-100.00,SW,225,8.0,-999.0,83,-99.99,,,-99.99,0.000000,,2013-03-12 01:00:00,
2013-03-11 21:33:00,29.0,25.0,-100.00,SW,225,8.0,-999.0,83,-99.99,,,-99.99,0.000000,,2013-03-12 01:33:00,
2013-03-11 21:42:00,29.0,25.0,-100.00,SW,225,8.0,-999.0,83,-99.99,,,-99.99,0.000000,,2013-03-12 01:42:00,
2013-03-11 21:52:00,29.0,25.0,-100.00,SW,225,8.0,-999.0,83,-99.99,,,-99.99,0.000000,,2013-03-12 01:52:00,
2013-03-11 22:00:00,28.0,25.0,-100.00,NW,315,9.0,-999.0,86,-99.99,,,-99.99,0.000000,,2013-03-12 02:00:00,
2013-03-11 22:43:00,28.0,25.0,-100.00,NW,315,9.0,-999.0,86,-99.99,,,-99.99,0.000000,,2013-03-12 02:43:00,
2013-03-11 22:52:00,28.0,25.0,-100.00,NW,315,9.0,-999.0,86,-99.99,,,-99.99,0.000000,,2013-03-12 02:52:00,
2013-03-11 23:00:00,27.0,24.0,-100.00,NW,315,9.0,-999.0,86,-99.99,,,-99.99,0.000000,,2013-03-12 03:00:00,
2013-03-11 23:43:00,27.0,24.0,-100.00,NW,315,9.0,-999.0,86,-99.99,,,-99.99,0.000000,,2013-03-12 03:43:00,
2013-03-11 23:53:00,27.0,24.0,-100.00,NW,315,9.0,-999.0,86,-99.99,,,-99.99,0.000000,,2013-03-12 03:53:00,